Showing default

GUANGCHUAN 02, 62112

Orbit data source: Space-Track

GUANGCHUAN 02, 62112 is a Chinese payload satellite in LEO that was launched on Wed, 27 Nov 2024 UTC via a ZHUQUE-2E launch vehicle from the Jiuquan Satellite Launch Center, China (JSC). Payload-class satellites include a variety of spacecraft equipped with specific instruments for various scientific and technological missions. These include communications satellites like Starlink; space stations such as the ISS; scientific satellites like the Hubble; Earth observation satellites from companies like Planet Labs, Umbra, and HawkEye 360; GPS; miniature CubeSats for education and research; and military/defense satellites.

Loading next visibility...
Identifier
62112, 2024-221B
Orbit
LEO
Country
Flag of CNCN / PRC
Related business
Manufacturer
CAST?
Mission
Operational Commercial Communications
Bus & Motor
HQ, Unknown motor
Mass
~500 kg wet, ~500 kg dry
Launch date (UTC)
2024-11-27 (10 months ago)
Launch vehicle
ZHUQUE-2E
Launch site
Jiuquan Satellite Launch Center, China (JSC)
Object type
Payload
Rocket body
Debris
Shape & HBR
Box + 2 Pan, 3.0 m
Radar Cross Section
4.560 m², Large (>1 m²)

Expand to show TLE details & history
Last TLE update: 9 hours ago

TLE from 9 hours ago
0 GUANGCHUAN 02
1 62112U 24221B   25260.87999291  .00005082  00000-0  28803-3 0  9991
2 62112  49.9442  49.1109 0007060 322.3119  37.7336 15.14527221 44887
Epoch: 2025-09-17T21:07Z
TLE epoch observation values (Epoch: 2025-09-17T21:07:11.387Z)
Latitude
-0.00003°
Longitude
95.26383°
Altitude
519.108 km
Speed
7.607 km/s
True Right ascension
03h 16m 26s
True Declination
0° 00' 00"
Sunlit
Object was in full shadow at epoch
Visualization orbit readout
Latitude
Unknown
Longitude
Unknown
Altitude
Unknown
Speed
Unknown
Apparent Right ascension
Unknown
Apparent Declination
Unknown
Sunlit
N/A
Visualization observer readout
Local Sidereal Time
23:05:00
Azimuth
Unknown
Elevation
Unknown
Doppler factor
Unknown
Orbital elements
Apogee altitude
528.064 km
Perigee altitude
518.32 km
Semi-major axis
6,901.329 km
Eccentricity
0.00071
Inclination
49.9442°
RAAN
49.1109°
Arg. of periapsis
322.3119°
True anomaly
37.78315°
Mean anomaly
37.7336°
Eccentric anomaly
37.75837°
Mean motion
3.78568 °/min
Orbital period
95.1 mins
BSTAR
0.00028803
Loading maneuver chart data...
Computing Atmospheric mass density...
Loading historical data...
Loading historical data...
Loading historical data...
Loading historical data...
Loading historical data...
Loading historical data...
Loading historical data...
Other satellites on launch #221 in the year 2024 (2024-11-27 UTC)

Documentation

Showing up to 5 results
|